Location: Caltech
(34.1382°N, 118.1253°W)
Time: 15:00:19
(UTC-08:00)

Iridium 18 - Visible Passes

Search period start: 27 January 2015 00:00
Search period end: 06 February 2015 00:00
Orbit: 776 x 779 km, 86.4° (Epoch: 27 January)

Date Brightness Start Highest point End Pass type
(mag) Time Alt. Az. Time Alt. Az. Time Alt. Az.
27 Jan 5.9 04:42:29 10° N 04:47:39 64° E 04:52:49 10° SSE visible
27 Jan 7.3 06:26:05 10° WNW 06:27:53 11° W 06:29:20 10° W visible
27 Jan 6.5 17:35:14 10° SSW 17:40:20 54° W 17:45:26 10° N visible
28 Jan 7.1 04:09:22 10° NNE 04:14:00 32° E 04:18:41 10° SE visible
28 Jan 6.6 05:50:31 10° NNW 05:54:34 23° W 05:58:29 10° SW visible
29 Jan 8.1 03:36:55 10° NE 03:40:10 17° ENE 03:43:39 10° ESE visible
29 Jan 5.8 05:16:16 10° NNW 05:21:12 43° W 05:26:05 10° SSW visible
29 Jan 8.3 18:10:34 10° SW 18:14:18 19° WNW 18:17:50 10° NW visible
30 Jan 5.4 04:46:06 45° N 04:47:45 86° W 04:52:57 10° S visible
31 Jan 6.4 04:14:47 46° ESE 04:14:47 46° ESE 04:19:13 10° SSE visible
31 Jan 7.1 05:55:23 15° W 05:55:23 15° W 05:57:20 10° WSW visible
01 Feb 7.9 03:43:06 18° ESE 03:43:06 18° ESE 03:44:47 10° SE visible
01 Feb 7.0 05:23:41 20° SW 05:23:41 20° SW 05:25:36 10° SW visible
01 Feb 8.6 18:12:18 10° WSW 18:14:38 12° WNW 18:16:39 10° NW visible
02 Feb 7.4 04:51:47 16° SSW 04:51:47 16° SSW 04:52:53 10° SSW visible
